Powrót do katalogu

ORBCOMM FM 36

AktywnyŁącznośćLEO
NORAD 25984·PAYLOAD·🇺🇸 United States

Wystrzelony Dec 4, 1999 z Cape Canaveral Space Force Station

Loading…

Następne Przeloty (najbliższe 24 godziny)

TLE

ŚwieżeSource: Space-Track

Epoka: Sep 14, 2026, 13:56 UTC

1 25984U 99065E   26257.58107465  .00000619  00000-0  24284-3 0  9994
2 25984  45.0381  95.1539 0003831  68.5835 291.5423 14.39339539399863

Śledź ORBCOMM FM 36 w czasie rzeczywistym z AllMySat

Download on the App Store